Regional Weather Roundup
Issued by NWS

Home | Current Version | Previous Version | Graphics & Text | Print | Product List | Glossary On
Versions: 1 2 3 4 5 6 7 8 9 10 11 12 13 14 15 16 17 18 19 20 21 22 23 24 25 26 27 28 29 30 31 32 33 34 35 36 37 38 39 40 41 42 43 44 45 46 47 48 49 50
000
ASUS45 KABQ 270110
RWRNM
NEW MEXICO REGIONAL WEATHER ROUNDUP
NATIONAL WEATHER SERVICE ALBUQUERQUE NM
600 PM MST SUN FEB 26 2017

NOTE: "FAIR" MEANS FEW OR NO CLOUDS BELOW 12,000 FEET AGL WITH NO
       SIGNIFICANT WEATHER OR OBSTRUCTIONS TO VISION.

      THIS PRODUCT IS RELEASED AS TWO VERSIONS.  ONE VERSION NEAR
      THE TOP OF THE HOUR CONTAINING PRELIMINARY DATA FROM ALBUQUERQUE
      AND OTHER STATIONS.  A FINAL VERSION WITH ADDITIONAL DATA IS
      ISSUED ABOUT 10 MINUTES AFTER THE HOUR.

NMZ501-503-504-510>518-270200-
NORTHWEST PLATEAU/NORTHCENTRAL MOUNTAINS

CITY           SKY/WX    TMP DP  RH WIND       PRES   REMARKS
FARMINGTON     FAIR      38   8  29 CALM      29.87S
LOS ALAMOS     CLOUDY    35  16  46 SW8G16    29.91R WCI  28
SANTA FE       MOCLDY    36  19  50 S3        29.89R
TAOS           FAIR      34   0  23 NW10      29.88R WCI  26
ANGEL FIRE     FAIR      28   3  33 W5        29.84R WCI  23

$$
NMZ402-403-502-505>509-270200-
WESTCENTRAL MOUNTAINS/SOUTHWEST MOUNTAINS

CITY           SKY/WX    TMP DP  RH WIND       PRES   REMARKS
GALLUP         CLOUDY    37  23  56 S8        29.90S WCI  31
GRANTS         CLOUDY    38  19  46 NW8G18    29.93R WCI  32
SILVER CITY    FAIR      48  19  31 W13       29.93R

$$
NMZ407-409-411-412-270200-
SOUTHERN DESERTS

CITY           SKY/WX    TMP DP  RH WIND       PRES   REMARKS
DEMING         FAIR      56  17  21 NW10      29.89R
LAS CRUCES     FAIR      57  16  19 W15       29.90R
HOLLOMAN AFB   CLOUDY    58  21  24 NE6       29.92R
ALAMOGORDO     FAIR      57  19  23 N8        29.90R
T OR C         FAIR      51  23  33 NW7       29.90R

$$
NMZ519>523-270200-
CENTRAL VALLEYS/CENTRAL HIGHLANDS

CITY           SKY/WX    TMP DP  RH WIND       PRES   REMARKS
ALBUQUERQUE    MOCLDY    42  24  49 SE9       29.91R
DOUBLE EAGLE   MOCLDY    39  23  52 E7        29.91R WCI  34
MORIARTY ARPT  FAIR      37  24  59 W3        29.92R
CLINES CORNERS FAIR      31  20  63 NW13      29.91R WCI  21
BELEN          FAIR      41  24  51 NE8       29.90S
SOCORRO        CLOUDY    50  20  31 CALM      29.87R

$$
NMZ524>526-539-540-270200-
SOUTHCENTRAL MOUNTAINS

CITY           SKY/WX    TMP DP  RH WIND       PRES   REMARKS
RUIDOSO        MIX PCPN  36  28  75 SW20      29.95R WCI  25

$$
NMZ527>531-270200-
NORTHEAST HIGHLANDS/NORTHEAST PLAINS

CITY           SKY/WX    TMP DP  RH WIND       PRES   REMARKS
LAS VEGAS      FAIR      34  13  41 SW15      29.85R WCI  24
RATON          FAIR      38  -2  18 W13       29.80R WCI  30
CLAYTON        FAIR      44  18  35 W8        29.79R

$$
NMZ532>537-270200-
EASTCENTRAL PLAINS

CITY           SKY/WX    TMP DP  RH WIND       PRES   REMARKS
TUCUMCARI      FAIR      52  14  22 W17       29.83R
CANNON AFB     CLOUDY    53  19  26 W10       29.87R
CLOVIS AIRPORT CLOUDY    54  19  26 W26G33    29.88R

$$
NMZ028-029-538-270200-
SOUTHEAST PLAINS

CITY           SKY/WX    TMP DP  RH WIND       PRES   REMARKS
ROSWELL        FAIR      58  18  21 W14         N/A
ARTESIA        FAIR      59  23  25 W12       29.86R
CARLSBAD       FAIR      61  23  23 NW13      29.84R
HOBBS          PTCLDY    63  16  16 SW15      29.86R


$$



USA.gov is the U.S. government's official web portal to all federal, state and local government web resources and services.